Regional Weather Roundup
Issued by NWS Jackson, KY

Home | Current Version | Previous Version | Text Only | Print | Product List | Glossary On
Versions: 1 2 3 4 5 6 7 8 9 10 11 12 13 14 15 16 17 18 19 20 21 22 23 24 25 26 27 28 29 30 31 32 33 34 35 36 37 38 39 40 41 42 43 44 45 46 47 48 49 50
000
ASUS43 KJKL 061610
RWRJKL

EAST KENTUCKY HOURLY WEATHER ROUNDUP
NATIONAL WEATHER SERVICE JACKSON KY
1200 PM EDT MON JUL 06 2015

NOTE: "FAIR" INDICATES FEW OR NO CLOUDS BELOW 12,000 FEET WITH
NO SIGNIFICANT WEATHER AND/OR OBSTRUCTIONS TO VISIBILITY.

* THESE REPORTS ARE NOT UNDER NWS QUALITY CONTROL AND MAY NOT
  REPORT WEATHER SUCH AS PRECIPITATION AND FOG.

KYZ079-080-083-085-087-088-110-112-115-119-120-061700
...EASTERN KENTUCKY...

CITY           SKY/WX    TMP DP  RH WIND       PRES   REMARKS
JACKSON        PTSUNNY   74  66  76 VRB3      30.16S
LONDON         PTSUNNY   75  65  70 SW7       30.17S
SOMERSET*      CLOUDY    73  70  88 CALM      30.17R
MONTICELLO*      N/A     81  71  71 SW7       30.18R
MIDDLESBORO*     N/A     79  68  69 W6        30.17S
HARLAN APT*      N/A     75  63  64 W7        30.18S
HAZARD APT*    MOSUNNY   77  66  69 SW7       30.16F
BLACK MTN*       N/A    N/A N/A N/A S1          N/A
PIKEVILLE APT* CLOUDY    68  68 100 CALM      30.16S FOG
BIG SANDY*     CLOUDY    72  68  87 W6        30.15S
MOREHEAD APT*    N/A     79  64  61 SW5       30.15R
$$

KYZ035-036-041-042-044-050-067-078-099-061700
...CENTRAL KENTUCKY...

CITY           SKY/WX    TMP DP  RH WIND       PRES   REMARKS
MT STERLING*     N/A     77  68  73 W6        30.15S
FLEMING/MASON* MOSUNNY   79  64  61 W8        30.13R
DANVILLE*      CLOUDY    79  68  69 SW3       30.15R
RICHMOND*        N/A     79  63  57 CALM      30.13S
LEXINGTON        N/A     80  65  59 VRB6      30.13S
FRANKFORT        N/A     79  65  62 S5        30.10F
$$

KYZ091>093-OHZ055-061-077-WVZ005-015-034-035-042-061700
...SOUTHERN OHIO/WEST VIRGINIA...

CITY           SKY/WX    TMP DP  RH WIND       PRES   REMARKS
COVINGTON        N/A     78  64  61 CALM      30.10F
COLUMBUS         N/A     80  63  55 VRB5      30.07S
DAYTON           N/A     79  63  57 VRB3      30.10F
WILMINGTON       N/A     78  63  59 W8        30.10S
HUNTINGTON     PTSUNNY   77  68  73 NW5       30.10S
CHARLESTON     CLOUDY    73  67  81 SW7       30.10S HAZE
PINEVILLE*     CLOUDY    70  69  98 MISG      30.22R
BECKLEY        CLOUDY    70  63  78 W7        30.18R
BLUEFIELD      CLOUDY    70  63  78 W10       30.21S
$$

VAZ002-007-008-TNZ017-027-036-066-071-061700
...SOUTHWEST VIRGINIA/EAST TENNESSEE...

CITY           SKY/WX    TMP DP  RH WIND       PRES   REMARKS
WISE*          LGT RAIN  70  64  83 W9        30.23S
JONESVILLE*      N/A    N/A N/A N/A MISG        N/A
ABINGDON*      PTSUNNY   76  66  72 W8        30.20S
BRISTOL        CLOUDY    75  67  76 SW10      30.18S
KNOXVILLE      PTSUNNY   75  69  81 SW5       30.17S
OAK RIDGE        N/A     80  69  69 VRB5      30.17F
CROSSVILLE       N/A     79  67  66 VRB3      30.21S
NASHVILLE        N/A     81  72  74 S10       30.14R
$$

...KEY TO REMARKS...
VSB - VISIBILITY IN MILES
WCI - WIND CHILL INDEX
HX  - HEAT INDEX

$$


USA.gov is the U.S. government's official web portal to all federal, state and local government web resources and services.